CST,Max TemperatureF,Mean TemperatureF,Min TemperatureF,Max Dew PointF,MeanDew PointF,Min DewpointF,Max Humidity, Mean Humidity, Min Humidity, Max Sea Level PressureIn, Mean Sea Level PressureIn, Min Sea Level PressureIn, Max VisibilityMiles, Mean VisibilityMiles, Min VisibilityMiles, Max Wind SpeedMPH, Mean Wind SpeedMPH, Max Gust SpeedMPH,PrecipitationIn, CloudCover, Events, WindDirDegrees
2012-11-1,69,53,37,43,38,34,93,69,31,30.08,30.01,29.97,10,10,8,5,1,,0.00,1,,242
2012-11-2,75,60,44,52,44,39,93,69,36,30.03,29.98,29.94,10,10,10,6,1,,0.00,1,,47
2012-11-3,84,66,48,63,51,43,93,67,48,30.12,30.00,29.92,10,10,10,22,4,,0.00,1,,278
2012-11-4,57,48,39,41,38,34,93,71,48,30.21,30.16,30.12,10,10,10,9,6,,0.00,2,,359
2012-11-5,53,46,39,45,40,36,93,83,58,30.14,30.07,29.98,10,10,5,7,1,,0.00,5,Rain,109
2012-11-6,53,48,44,46,45,43,100,90,72,30.09,30.03,29.99,10,9,5,10,2,,0.00,8,,282
2012-11-7,55,45,35,45,40,36,100,83,51,30.19,30.06,29.98,10,8,0,17,4,,0.00,4,,313
2012-11-8,60,45,30,41,36,30,100,80,42,30.29,30.21,30.16,10,9,1,6,1,,0.00,0,,139
2012-11-9,71,55,39,52,42,37,93,69,46,30.23,30.16,30.10,10,10,10,8,4,,0.00,1,,146
2012-11-10,73,62,50,55,49,43,88,66,44,30.23,30.15,30.10,10,10,10,13,7,,0.00,0,,148
2012-11-11,75,65,53,63,56,52,100,74,50,30.13,30.06,29.96,10,9,3,20,11,31,0.00,6,Rain,155
2012-11-12,53,42,30,52,38,25,100,82,40,30.47,30.32,30.09,10,8,3,16,7,,0.00,4,,316
2012-11-13,51,40,30,32,28,27,100,70,38,30.53,30.46,30.41,10,10,10,10,2,,0.00,0,,29
2012-11-14,51,43,35,36,31,27,87,70,54,30.43,30.38,30.32,10,10,10,10,3,,0.00,3,,11
2012-11-15,57,44,30,37,34,28,100,76,47,30.37,30.33,30.30,10,10,10,8,2,,0.00,1,,353
2012-11-16,59,46,33,36,33,28,93,66,31,30.43,30.38,30.35,10,10,10,8,4,,0.00,1,,17
2012-11-17,62,50,37,37,32,28,87,59,30,30.47,30.40,30.36,10,10,10,6,3,,0.00,0,,34
2012-11-18,66,49,32,39,35,30,100,69,32,30.41,30.36,30.31,10,10,10,5,1,,0.00,0,,103
2012-11-19,69,52,35,45,40,34,93,71,35,30.33,30.27,30.19,10,10,10,6,1,,0.00,2,,238
2012-11-20,71,60,48,54,48,43,94,71,43,30.18,30.14,30.07,10,10,10,12,2,,0.00,2,,265
2012-11-21,69,56,42,48,46,43,100,77,46,30.28,30.21,30.15,10,10,8,8,4,,0.00,0,,9
2012-11-22,69,51,33,48,43,34,100,76,43,30.22,30.17,30.11,10,7,0,9,2,,0.00,4,,163
2012-11-23,60,50,39,55,40,25,100,62,39,30.34,30.23,30.13,10,10,6,15,6,,0.00,4,Rain,310
2012-11-24,46,36,26,25,23,21,93,62,42,30.39,30.29,30.17,10,10,10,8,5,,0.00,1,,341
2012-11-25,60,42,24,30,27,23,93,63,29,30.16,30.08,30.00,10,10,10,9,3,,0.00,0,,151
2012-11-26,51,45,39,52,40,30,100,82,65,30.23,30.08,30.04,10,8,1,14,4,,0.00,6,Rain,89
2012-11-27,46,38,30,39,33,28,100,86,66,30.39,30.34,30.24,10,10,6,14,8,,0.00,3,Rain,358
2012-11-28,53,38,24,36,29,25,100,80,41,30.50,30.42,30.37,10,8,1,6,0,,0.00,0,,115
2012-11-29,60,44,28,30,28,25,93,63,25,30.38,30.31,30.24,10,10,10,8,2,,0.00,3,,136
2012-11-30,66,52,39,48,42,34,93,72,52,30.28,30.23,30.17,10,10,10,8,5,,0.00,2,,144